TimeEST,TemperatureF,Dew PointF,Humidity,Sea Level PressureIn,VisibilityMPH,Wind Direction,Wind SpeedMPH,Gust SpeedMPH,PrecipitationIn,Events,Conditions,WindDirDegrees,DateUTC
12:15 AM,33.8,33.8,100,30.40,10.0,NW,10.4,-,N/A,,Clear,320,2013-01-10 05:15:00
12:35 AM,35.6,35.6,100,30.40,10.0,Calm,Calm,-,N/A,,Clear,0,2013-01-10 05:35:00
12:55 AM,33.8,33.8,100,30.41,9.0,ESE,3.5,-,N/A,,Clear,120,2013-01-10 05:55:00
1:15 AM,32.0,30.2,93,30.41,10.0,South,3.5,-,N/A,,Clear,180,2013-01-10 06:15:00
1:35 AM,32.0,30.2,93,30.41,10.0,WNW,6.9,-,N/A,,Clear,290,2013-01-10 06:35:00
1:55 AM,33.8,33.8,100,30.42,10.0,Calm,Calm,-,N/A,,Clear,0,2013-01-10 06:55:00
2:15 AM,35.6,33.8,93,30.43,10.0,Calm,Calm,-,N/A,,Clear,0,2013-01-10 07:15:00
2:35 AM,37.4,35.6,93,30.44,10.0,Calm,Calm,-,N/A,,Clear,0,2013-01-10 07:35:00
2:55 AM,39.2,37.4,93,30.44,10.0,WNW,9.2,-,N/A,,Clear,300,2013-01-10 07:55:00
3:15 AM,41.0,30.2,65,30.44,10.0,NW,6.9,-,N/A,,Clear,320,2013-01-10 08:15:00
3:35 AM,46.4,30.2,53,30.44,10.0,NNW,8.1,-,N/A,,Clear,330,2013-01-10 08:35:00
3:55 AM,44.6,30.2,57,30.44,10.0,NNW,8.1,-,N/A,,Clear,330,2013-01-10 08:55:00
4:15 AM,44.6,30.2,57,30.44,10.0,NNW,8.1,-,N/A,,Clear,330,2013-01-10 09:15:00
4:35 AM,42.8,28.4,57,30.46,10.0,Calm,Calm,-,N/A,,Clear,0,2013-01-10 09:35:00
4:55 AM,35.6,28.4,75,30.46,10.0,NNW,8.1,-,N/A,,Clear,330,2013-01-10 09:55:00
5:15 AM,33.8,30.2,87,30.47,10.0,SE,3.5,-,N/A,,Clear,130,2013-01-10 10:15:00
5:35 AM,33.8,30.2,87,30.49,10.0,Calm,Calm,-,N/A,,Clear,0,2013-01-10 10:35:00
5:55 AM,32.0,28.4,87,30.49,10.0,NNW,3.5,-,N/A,,Clear,330,2013-01-10 10:55:00
6:15 AM,32.0,30.2,93,30.50,10.0,Calm,Calm,-,N/A,,Clear,0,2013-01-10 11:15:00
6:45 AM,32.0,30.2,93,30.52,10.0,Calm,Calm,-,N/A,,Clear,0,2013-01-10 11:45:00
7:50 AM,32.0,30.2,93,30.55,10.0,Calm,Calm,-,N/A,,Clear,0,2013-01-10 12:50:00
8:45 AM,39.2,35.6,87,30.58,10.0,Calm,Calm,-,N/A,,Clear,0,2013-01-10 13:45:00
10:45 AM,50.0,28.4,43,30.59,10.0,NNE,9.2,-,N/A,,Clear,20,2013-01-10 15:45:00
11:45 AM,53.6,28.4,38,30.56,10.0,NNE,11.5,-,N/A,,Clear,20,2013-01-10 16:45:00
12:45 PM,55.4,26.6,33,30.53,10.0,NW,9.2,-,N/A,,Clear,320,2013-01-10 17:45:00
2:45 PM,55.4,24.8,31,30.31,10.0,North,5.8,-,N/A,,Clear,360,2013-01-10 19:45:00
3:45 PM,53.6,24.8,33,30.50,10.0,NE,4.6,-,N/A,,Clear,40,2013-01-10 20:45:00
4:50 PM,51.8,24.8,35,30.51,10.0,NE,3.5,-,N/A,,Clear,40,2013-01-10 21:50:00
6:45 PM,46.4,32.0,57,30.51,10.0,Calm,Calm,-,N/A,,Clear,0,2013-01-10 23:45:00
8:35 PM,42.8,33.8,70,30.51,10.0,Calm,Calm,-,N/A,,Clear,0,2013-01-11 01:35:00
8:55 PM,42.8,33.8,70,30.50,10.0,Calm,Calm,-,N/A,,Clear,0,2013-01-11 01:55:00
9:15 PM,41.0,33.8,76,30.51,10.0,Calm,Calm,-,N/A,,Clear,0,2013-01-11 02:15:00
9:35 PM,39.2,35.6,87,30.52,10.0,Calm,Calm,-,N/A,,Clear,0,2013-01-11 02:35:00
9:55 PM,39.2,33.8,81,30.52,10.0,Calm,Calm,-,N/A,,Clear,0,2013-01-11 02:55:00
10:15 PM,39.2,33.8,81,30.51,10.0,Calm,Calm,-,N/A,,Clear,0,2013-01-11 03:15:00
10:35 PM,37.4,33.8,87,30.50,10.0,Calm,Calm,-,N/A,,Clear,0,2013-01-11 03:35:00
10:55 PM,37.4,33.8,87,30.51,10.0,Calm,Calm,-,N/A,,Clear,0,2013-01-11 03:55:00
11:15 PM,37.4,33.8,87,30.51,10.0,Calm,Calm,-,N/A,,Clear,0,2013-01-11 04:15:00
11:35 PM,37.4,33.8,87,30.51,10.0,Calm,Calm,-,N/A,,Clear,0,2013-01-11 04:35:00